Regional Weather Roundup
Issued by NWS

Home | Current Version | Previous Version | Text Only | Print | Product List | Glossary Off
Versions: 1 2 3 4 5 6 7 8 9 10 11 12 13 14 15 16 17 18 19 20 21 22 23 24 25 26 27 28 29 30 31 32 33 34 35 36 37 38 39 40 41 42 43 44 45 46 47 48 49 50

000
ASUS43 KOAX 230102
RWRNE

WEATHER ROUNDUP FOR NEBRASKA
NATIONAL WEATHER SERVICE OMAHA NE
800 PM CDT SUN OCT 22 2017

NOTES: SATELLITE DATA IS BEING USED TO AUGMENT CLOUD COVER ABOVE
       12000 FEET.
       "FAIR" INDICATES FEW OR NO CLOUDS BELOW 12,000 FEET WITH NO
       SIGNIFICANT WEATHER AND/OR OBSTRUCTIONS TO VISIBILITY.


NEZ001>004-019>022-054>056-230200-
NEBRASKA PANHANDLE

CITY           SKY/WX    TMP DP  RH WIND       PRES   REMARKS
SCOTTSBLUFF    CLEAR     64  28  25 W16G31    30.00R
ALLIANCE       CLEAR     55  30  38 W13       29.97R
CHADRON        CLEAR     55  25  31 CALM      29.93R
GORDON         FAIR      58  32  38 W6        29.93R
KIMBALL        CLOUDY    52  27  37 NW12      30.07R
SIDNEY         CLOUDY    56  27  32 W9        30.04R
$$

NEZ057>060-069>072-079>082-230200-
SOUTHWEST NEBRASKA

CITY           SKY/WX    TMP DP  RH WIND       PRES   REMARKS
NORTH PLATTE   CLOUDY    54  36  50 CALM      29.97R
IMPERIAL       CLOUDY    54  29  38 SW7       30.01R
LEXINGTON      CLOUDY    55  32  42 S6        29.98R
MCCOOK         CLOUDY    60  26  27 SW8       29.99R
OGALLALA       CLOUDY    55  33  43 CALM      30.00R
$$

NEZ005>010-023>029-035>040-094-230200-
NORTH CENTRAL NEBRASKA

CITY           SKY/WX    TMP DP  RH WIND       PRES   REMARKS
VALENTINE      CLOUDY    54  33  45 S6        29.89S
AINSWORTH      CLOUDY    50  37  60 S7        29.90F
BROKEN BOW     CLOUDY    45  35  68 SE3       29.95R
O`NEILL        CLEAR     53  37  54 S7        29.91S
ORD            CLEAR     48  33  56 S8        29.94R
THEDFORD       CLOUDY    53  35  51 CALM      29.94S
$$

NEZ041-046>049-061>064-073>077-083>087-230200-
SOUTH CENTRAL NEBRASKA

CITY           SKY/WX    TMP DP  RH WIND       PRES   REMARKS
GRAND ISLAND   CLEAR     54  32  43 S9        29.99R
HASTINGS       CLOUDY    57  28  33 S7        30.00S
HEBRON         CLEAR     54  32  43 S8        30.03R
HOLDREGE       CLOUDY    57  28  33 S9        30.00R
KEARNEY        CLEAR     55  27  34 S8        29.99S
YORK           CLOUDY    55  32  41 S7        29.99F
$$

NEZ011>018-030>034-042>045-230200-
NORTHEAST NEBRASKA

CITY           SKY/WX    TMP DP  RH WIND       PRES   REMARKS
NORFOLK        PTCLDY    57  31  37 S10       29.94S
ALBION         PTCLDY    54  32  43 CALM      29.96R
BLAIR          CLEAR     58  32  38 S7        29.99S
COLUMBUS       CLEAR     55  34  45 S6        29.98S
FREMONT        CLEAR     58  29  32 S7        29.99S
TEKAMAH        CLEAR     48  33  56 S8        29.97S
WAYNE          CLOUDY    50  28  42 CALM      29.94S
$$

NEZ050>053-065>068-078-088>093-230200-
SOUTHEAST NEBRASKA

CITY           SKY/WX    TMP DP  RH WIND       PRES   REMARKS
LINCOLN        CLEAR     53  35  50 S8        30.01S
OMAHA EPPLEY   CLEAR     57  35  43 S8        30.00S
BEATRICE       CLEAR     55  34  44 S8        30.03S
FALLS CITY     CLEAR     57  34  41 S7        30.04F
NEBRASKA CITY  CLEAR     54  35  48 S8        30.03S
PLATTSMOUTH    CLEAR     56  33  41 S9        30.01F
$$

NEZ044-045-051>053-067-230200-
OMAHA AREA

CITY           SKY/WX    TMP DP  RH WIND       PRES   REMARKS
OMAHA EPPLEY   CLEAR     57  35  43 S8        30.00S
BLAIR          CLEAR     58  32  38 S7        29.99S
FREMONT        CLEAR     58  29  32 S7        29.99S
MILLARD        CLEAR     55  38  51 CALM      30.00S
OFFUTT AFB     CLEAR     48  39  71 SE3       30.00S
PLATTSMOUTH    CLEAR     56  33  41 S9        30.01F
WAHOO          FAIR      51  31  45 S8        29.99S
$$



USA.gov is the U.S. government's official web portal to all federal, state and local government web resources and services.